Location: Vancouver
(49.2500°N, 123.1330°W)
Time: 02:58:56
(UTC-07:00)

Vanguard 2 Rocket - Visible Passes

Search period start: 29 August 2014 00:00
Search period end: 08 September 2014 00:00
Orbit: 554 x 3336 km, 32.9° (Epoch: 24 August)

Date Brightness Start Highest point End Pass type
(mag) Time Alt. Az. Time Alt. Az. Time Alt. Az.
31 Aug 8.3 20:48:41 10° SSW 20:50:26 12° S 20:52:00 10° SSE visible
02 Sep 8.4 21:04:39 10° SW 21:06:42 12° SSW 21:08:31 10° S visible
04 Sep 8.5 21:21:30 10° SW 21:22:52 11° SSW 21:24:07 10° S visible
05 Sep 8.6 20:21:12 10° SW 20:25:05 16° SSW 20:28:10 10° SSE visible
07 Sep 8.7 20:37:45 10° SW 20:41:11 14° SSW 20:43:59 10° S visible
